TimeCDT,TemperatureF,Dew PointF,Humidity,Sea Level PressureIn,VisibilityMPH,Wind Direction,Wind SpeedMPH,Gust SpeedMPH,PrecipitationIn,Events,Conditions,WindDirDegrees,DateUTC
12:15 AM,77.0,73.4,89,29.69,10.0,Calm,Calm,-,N/A,,Clear,0,2013-06-26 05:15:00
12:35 AM,75.7,72.5,90,29.69,10.0,Calm,Calm,-,N/A,,Clear,0,2013-06-26 05:35:00
12:55 AM,76.1,72.9,90,29.69,10.0,South,3.5,-,N/A,,Clear,190,2013-06-26 05:55:00
1:15 AM,75.2,72.5,91,29.69,10.0,Calm,Calm,-,N/A,,Clear,0,2013-06-26 06:15:00
1:35 AM,75.4,72.9,92,29.69,10.0,Calm,Calm,-,N/A,,Clear,0,2013-06-26 06:35:00
1:55 AM,74.8,72.1,91,29.69,10.0,Calm,Calm,-,N/A,,Clear,0,2013-06-26 06:55:00
2:15 AM,73.9,71.8,93,29.69,7.0,WSW,6.9,-,N/A,,Clear,250,2013-06-26 07:15:00
2:35 AM,74.3,71.8,92,29.69,10.0,SW,3.5,-,N/A,,Clear,230,2013-06-26 07:35:00
2:55 AM,75.2,72.5,91,29.70,10.0,Calm,Calm,-,N/A,,Clear,0,2013-06-26 07:55:00
3:15 AM,75.2,72.7,92,29.70,7.0,Calm,Calm,-,N/A,,Clear,0,2013-06-26 08:15:00
3:35 AM,76.3,73.0,90,29.70,10.0,West,11.5,-,N/A,,Clear,270,2013-06-26 08:35:00
3:55 AM,77.0,73.0,88,29.70,10.0,West,10.4,-,N/A,,Clear,270,2013-06-26 08:55:00
4:15 AM,76.5,72.9,89,29.71,10.0,West,10.4,-,N/A,,Clear,280,2013-06-26 09:15:00
4:35 AM,76.5,72.7,88,29.72,10.0,WNW,8.1,-,N/A,,Clear,290,2013-06-26 09:35:00
4:55 AM,76.6,72.7,87,29.73,10.0,WNW,12.7,17.3,N/A,,Clear,290,2013-06-26 09:55:00
5:15 AM,77.0,71.8,84,29.74,10.0,WNW,13.8,-,N/A,,Clear,300,2013-06-26 10:15:00
5:35 AM,76.5,69.8,80,29.75,10.0,NW,12.7,-,N/A,,Clear,320,2013-06-26 10:35:00
5:55 AM,75.4,68.4,79,29.77,10.0,NW,15.0,19.6,N/A,,Clear,320,2013-06-26 10:55:00
6:15 AM,74.5,68.0,80,29.77,10.0,NW,12.7,-,N/A,,Clear,320,2013-06-26 11:15:00
6:35 AM,73.9,68.0,82,29.78,10.0,NW,11.5,-,N/A,,Clear,320,2013-06-26 11:35:00
6:55 AM,73.9,67.6,81,29.79,10.0,NW,11.5,-,N/A,,Clear,320,2013-06-26 11:55:00
7:15 AM,74.3,67.6,80,29.79,10.0,NW,11.5,16.1,N/A,,Clear,320,2013-06-26 12:15:00
7:35 AM,75.2,67.3,76,29.80,10.0,NNW,9.2,-,N/A,,Clear,330,2013-06-26 12:35:00
7:55 AM,75.9,67.6,75,29.80,10.0,NNW,11.5,-,N/A,,Clear,330,2013-06-26 12:55:00
8:15 AM,76.5,67.8,75,29.81,10.0,NNW,15.0,-,N/A,,Clear,330,2013-06-26 13:15:00
8:35 AM,77.4,68.0,73,29.82,10.0,NNW,13.8,-,N/A,,Clear,330,2013-06-26 13:35:00
8:55 AM,78.4,68.0,70,29.83,10.0,NNW,15.0,18.4,N/A,,Clear,330,2013-06-26 13:55:00
9:15 AM,79.5,66.9,65,29.83,10.0,NNW,16.1,19.6,N/A,,Clear,340,2013-06-26 14:15:00
9:55 AM,81.5,66.0,59,29.84,10.0,NNW,13.8,-,N/A,,Clear,330,2013-06-26 14:55:00
10:15 AM,82.2,66.0,58,29.85,10.0,NNW,11.5,-,N/A,,Clear,330,2013-06-26 15:15:00
10:35 AM,83.3,66.0,56,29.85,10.0,NW,11.5,-,N/A,,Clear,320,2013-06-26 15:35:00
10:55 AM,83.7,64.2,52,29.86,10.0,NNW,13.8,18.4,N/A,,Clear,340,2013-06-26 15:55:00
11:15 AM,84.6,65.3,52,29.87,10.0,NW,9.2,17.3,N/A,,Clear,320,2013-06-26 16:15:00
11:35 AM,85.1,64.9,51,29.87,10.0,NW,8.1,-,N/A,,Clear,320,2013-06-26 16:35:00
11:55 AM,86.0,64.2,48,29.88,10.0,NW,10.4,-,N/A,,Clear,320,2013-06-26 16:55:00
12:15 PM,86.5,61.7,43,29.88,10.0,NW,11.5,-,N/A,,Clear,310,2013-06-26 17:15:00
12:35 PM,87.6,59.9,39,29.88,10.0,NW,12.7,-,N/A,,Clear,310,2013-06-26 17:35:00
12:55 PM,88.7,60.3,38,29.88,10.0,NNW,12.7,-,N/A,,Clear,340,2013-06-26 17:55:00
1:15 PM,88.5,59.5,38,29.88,10.0,NNW,10.4,17.3,N/A,,Clear,330,2013-06-26 18:15:00
1:35 PM,88.9,60.1,38,29.88,10.0,WNW,9.2,-,N/A,,Clear,300,2013-06-26 18:35:00
1:55 PM,88.7,59.4,37,29.88,10.0,NNW,10.4,-,N/A,,Clear,340,2013-06-26 18:55:00
2:15 PM,89.6,59.5,36,29.88,10.0,NW,11.5,-,N/A,,Clear,320,2013-06-26 19:15:00
2:35 PM,90.1,58.5,34,29.87,10.0,NW,9.2,-,N/A,,Clear,320,2013-06-26 19:35:00
2:55 PM,90.0,58.6,35,29.87,10.0,NW,9.2,-,N/A,,Clear,320,2013-06-26 19:55:00
3:15 PM,90.5,60.4,36,29.87,10.0,NW,6.9,-,N/A,,Clear,320,2013-06-26 20:15:00
3:35 PM,90.0,57.4,33,29.86,10.0,North,4.6,-,N/A,,Clear,350,2013-06-26 20:35:00
3:55 PM,90.0,58.1,34,29.87,10.0,NNW,5.8,-,N/A,,Clear,330,2013-06-26 20:55:00
4:15 PM,91.4,57.2,31,29.87,10.0,NNW,8.1,-,N/A,,Clear,330,2013-06-26 21:15:00
4:35 PM,90.5,58.5,34,29.87,10.0,NW,5.8,-,N/A,,Clear,320,2013-06-26 21:35:00
4:55 PM,91.4,56.7,31,29.86,10.0,NW,6.9,-,N/A,,Clear,320,2013-06-26 21:55:00
5:15 PM,91.6,56.5,30,29.86,10.0,NW,4.6,-,N/A,,Clear,320,2013-06-26 22:15:00
5:35 PM,91.4,57.2,31,29.86,10.0,NW,5.8,-,N/A,,Clear,320,2013-06-26 22:35:00
5:55 PM,91.4,56.1,30,29.86,10.0,North,6.9,-,N/A,,Clear,360,2013-06-26 22:55:00
6:15 PM,91.0,56.3,31,29.86,10.0,North,4.6,-,N/A,,Clear,350,2013-06-26 23:15:00
6:35 PM,91.4,56.7,31,29.86,10.0,NNW,6.9,-,N/A,,Clear,340,2013-06-26 23:35:00
6:55 PM,90.5,57.0,32,29.87,10.0,North,3.5,-,N/A,,Clear,350,2013-06-26 23:55:00
7:15 PM,88.2,61.9,41,29.87,10.0,NNE,3.5,-,N/A,,Clear,20,2013-06-27 00:15:00
7:35 PM,87.8,62.4,43,29.87,10.0,ENE,3.5,-,N/A,,Clear,60,2013-06-27 00:35:00
7:55 PM,86.9,62.8,44,29.87,10.0,Calm,Calm,-,N/A,,Clear,0,2013-06-27 00:55:00
8:15 PM,86.4,62.1,44,29.87,10.0,Calm,Calm,-,N/A,,Clear,0,2013-06-27 01:15:00
8:35 PM,84.0,66.7,56,29.87,10.0,East,3.5,-,N/A,,Clear,90,2013-06-27 01:35:00
8:55 PM,80.8,68.4,66,29.87,10.0,ESE,3.5,-,N/A,,Clear,120,2013-06-27 01:55:00
9:15 PM,80.4,68.0,66,29.87,10.0,Calm,Calm,-,N/A,,Clear,0,2013-06-27 02:15:00
9:35 PM,79.5,65.8,63,29.87,10.0,Calm,Calm,-,N/A,,Clear,0,2013-06-27 02:35:00
9:55 PM,79.3,64.2,60,29.88,10.0,Calm,Calm,-,N/A,,Clear,0,2013-06-27 02:55:00
10:15 PM,78.8,64.6,62,29.88,10.0,Calm,Calm,-,N/A,,Clear,0,2013-06-27 03:15:00
10:35 PM,78.3,64.9,63,29.90,10.0,Calm,Calm,-,N/A,,Clear,0,2013-06-27 03:35:00
10:55 PM,77.2,65.7,67,29.90,10.0,Calm,Calm,-,N/A,,Clear,0,2013-06-27 03:55:00
11:15 PM,77.5,65.5,66,29.90,10.0,Calm,Calm,-,N/A,,Clear,0,2013-06-27 04:15:00
11:35 PM,75.7,65.8,71,29.90,10.0,Calm,Calm,-,N/A,,Clear,0,2013-06-27 04:35:00
11:55 PM,72.9,66.2,80,29.90,10.0,Calm,Calm,-,N/A,,Clear,0,2013-06-27 04:55:00